Showing default

GSAT 29, 43698

Orbit data source: Space-Track

GSAT 29, 43698 is a payload satellite owned by ISRO (IN) in GEO that was launched on Wed, 14 Nov 2018 UTC via a GSLV MK III launch vehicle from the Sirharikota (SRI). Payloads include a variety of satellites, spacecraft, and rockets equipped with specific instruments for various scientific and technological missions. These include communications satellites like Starlink; space stations such as the ISS; scientific satellites like the Hubble; Earth observation satellites from companies like Planet Labs, Umbra, and HawkEye 360; GPS; miniature CubeSats for education and research; and military/defense satellites.

Not visible in the next 10 days
GSAT 29 details
Identifier
43698, 2018-089A
Orbit
GEO
Last TLE update2 days ago
Origin
Flag of INISRO (IN / IND)
ManufacturerISRO SAC/Banga
MissionOperational Civil Communications
Bus & MotorI3K, ISRO LAM
Mass3,423 kg wet, ~1,500 kg dry
Launch date (UTC)
2018-11-14 (6 years ago)
Launch vehicle
GSLV MK III
Launch site
Sirharikota (SRI)
Object type
Payload
Rocket body
Debris
Shape & HBRBox + 2 Pan, 20 m
Radar Cross Section16.006 m², Large (>1 m²)

Expand to show TLE details & history

TLE from 2 days ago
0 GSAT 29
1 43698U 18089A   24345.96144229  .00000101  00000-0  00000-0 0  9993
2 43698   0.0435 102.9647 0003408 152.7354 225.6717  1.00269258 22259
Epoch: 2024-12-10T23:04Z
Definitive object data (Epoch: 2024-12-10T23:04:28.613Z)
Latitude0.02598°
Longitude55.04482°
Altitude35,796.88 km
Speed3.074 km/s
True Right ascension08h 05m 18s
True Declination0° 01' 33"
Sunlit
Object was in daylight at TLE epoch
Visualization TLE readout
Latitude-0.01578°
Longitude-165.17239°
Altitude35,772.18 km
Speed3.076 km/s
Apparent Right ascension17h 32m 34s
Apparent Declination-4° 59' 12"
Sunlit
Object is in daylight
Visualization observer readout
Local Sidereal Time06:43:42
Azimuth29.307° NE
Elevation-51.568°
Doppler factor1
Orbital elements
Apogee altitude35,802.744 km
Perigee altitude35,774.003 km
Semi-major axis42,166.511 km
Eccentricity0.0003408
Inclination0.0435°
RAAN102.9647°
Arg. of periapsis152.7354°
True anomaly225.64377°
Mean anomaly225.6717°
Eccentric anomaly225.65774°
Mean motion0.25066 °/min
BSTARUnknown
Orbital period1436.19 mins
Loading historical data...
43698 neighbors
Authenticating...
Loading maneuver chart data...
Loading historical data...
Loading historical data...
Loading historical data...
Loading historical data...
Loading historical data...
Loading historical data...
Loading historical data...
Other satellites on launch #89 in the year 2018 (2018-11-14 UTC)

GSAT 29 Visibility forecast

Observer location: undefined°, undefined

GSAT 29 is not visible in the next 10 days
Span
Click to sort rows by Start time (UTC) header in descending order
Start Az.
Max El. time (UTC)
Max El. Az.
Max El.
End time (UTC)
End Az.
|